Wind_Speed
19 19 20 20 19 20 20 20 20 19 19 18 18 17 17 18 18 18 18 18 18 18 18 17 17 17 17 17 17 17 17 16 17 16 16 17 16 16 16 16 16 16 15 14
20 21 22 21 20 20 20 21 21 21 20 19 19 18 18 18 19 20 20 20 19 19 19 18 17 17 18 18 18 19 18 18 18 17 17 17 17 17 17 16 16 16 16 15
22 22 23 22 21 21 21 21 21 22 21 21 21 20 20 19 19 19 20 20 20 19 19 19 19 18 18 19 19 20 20 20 19 19 18 18 18 18 18 17 17 17 16 16
23 22 23 22 21 21 22 21 22 22 21 21 21 21 21 21 21 20 20 20 20 20 20 20 21 21 20 20 20 20 21 21 21 20 20 20 19 19 19 18 18 18 17 17
25 25 24 23 23 23 23 23 22 22 22 22 22 22 22 22 22 22 21 21 21 21 21 21 22 22 22 21 21 21 22 22 21 21 21 21 20 20 20 20 20 19 19 18
26 27 26 24 24 24 24 24 23 23 23 23 23 22 22 23 23 23 23 23 23 22 22 22 23 23 22 22 22 22 22 22 22 22 22 22 22 22 21 21 21 20 19 19
26 28 27 25 24 24 25 24 24 24 24 24 24 23 23 24 24 24 24 24 24 23 23 23 23 23 23 24 23 23 23 23 23 23 23 23 23 23 22 22 22 21 20 20
27 28 27 27 26 26 26 26 26 26 26 26 25 25 25 25 24 24 24 25 25 25 24 24 24 24 24 24 24 24 24 24 23 23 24 24 24 23 23 23 23 23 22 21
29 29 29 28 28 27 27 27 27 26 27 27 27 26 26 27 26 25 25 25 25 26 25 25 25 25 25 25 25 25 25 25 24 25 25 25 25 24 24 24 24 23 23 23
29 29 29 29 29 28 28 28 27 28 28 28 27 27 27 27 28 27 27 26 26 26 26 26 26 26 26 26 27 26 26 26 26 26 26 26 26 26 26 25 24 24 24 24
30 30 31 30 30 30 29 28 28 28 28 28 28 28 28 27 27 28 28 27 27 27 27 27 27 27 27 28 28 28 27 27 27 27 27 28 28 27 27 27 26 26 26 27
30 30 32 31 31 30 29 29 29 29 29 29 29 29 29 28 28 28 28 28 28 28 28 28 28 28 28 29 29 29 29 29 28 29 29 29 29 28 28 29 29 28 28 28
31 32 33 31 31 31 31 31 31 31 30 31 31 31 31 30 30 30 29 29 29 30 30 30 29 29 30 30 30 30 30 30 30 30 30 30 30 30 30 30 30 30 30 30
32 32 32 31 32 32 32 32 31 31 31 31 32 32 31 31 31 31 30 30 30 31 31 31 31 30 30 31 30 30 30 31 31 31 31 31 30 30 30 31 31 31 31 31
32 32 32 32 32 32 33 32 32 31 31 31 30 30 31 31 31 31 31 32 32 32 32 32 32 32 32 31 31 31 31 31 31 31 31 31 31 31 31 32 32 32 32 31
31 31 31 31 31 31 32 31 31 30 30 30 29 29 30 31 31 31 31 32 32 33 33 32 32 33 33 32 32 32 32 32 32 31 31 31 32 32 32 33 34 34 34 33
30 30 30 30 30 30 30 30 31 31 30 30 30 30 31 31 31 31 31 31 32 33 33 33 32 33 33 33 33 33 32 32 32 32 33 33 33 33 33 34 34 34 34 34
30 30 30 30 29 29 29 30 30 31 31 31 31 31 31 31 31 31 31 32 32 32 32 33 33 33 34 33 34 33 33 33 33 34 34 34 34 34 34 35 36 35 35 35
30 30 29 29 29 29 29 29 30 30 30 31 31 31 31 31 30 30 31 31 31 32 31 32 33 33 34 34 34 33 33 33 33 34 34 34 34 34 34 34 35 35 35 35
29 29 29 29 29 29 28 28 28 29 28 29 30 30 30 30 31 31 31 31 31 31 31 32 32 32 33 33 33 33 33 33 33 33 33 34 34 34 34 34 35 35 35 35
30 30 30 30 30 29 29 29 29 29 29 30 30 30 30 31 31 31 31 31 30 31 32 32 32 32 32 32 32 32 32 33 33 34 34 35 35 35 35 35 35 35 35 35
30 30 30 30 30 30 30 30 30 30 30 31 30 30 30 31 30 30 30 30 30 31 31 31 31 31 31 32 33 33 33 34 35 35 35 35 36 36 36 36 36 36 35 36
30 30 30 31 30 30 30 30 30 30 30 31 31 31 30 31 30 31 30 30 30 30 30 31 31 31 32 33 33 33 34 34 34 34 34 35 35 35 34 35 35 35 35 36
30 30 30 30 30 30 31 31 31 30 30 31 31 31 31 31 31 31 31 31 31 31 30 30 31 31 31 32 32 32 33 33 33 33 33 33 33 33 33 34 34 35 35 36
30 30 29 30 30 31 31 31 31 31 30 30 29 30 30 31 31 31 32 32 31 31 30 30 29 29 30 30 31 31 32 32 33 33 32 33 33 33 33 34 35 35 35 35
29 29 29 29 29 30 31 30 30 30 30 31 30 30 30 30 30 31 32 32 32 31 31 31 31 31 31 31 31 32 32 32 32 33 32 32 32 32 32 33 34 34 34 34
28 29 29 29 29 30 30 30 30 30 30 30 30 30 30 30 30 30 31 31 31 31 32 32 32 31 31 31 31 32 32 32 32 32 33 33 33 33 33 33 34 34 34 35
Wind_Direction
263 265 265 264 264 263 263 263 262 261 261 259 260 263 263 261 259 258 259 259 258 257 256 256 256 256 256 256 256 257 256 255 255 257 260 259 260 261 263 263 264 265 267 269
264 265 265 263 264 264 264 264 263 261 261 261 261 262 263 262 260 259 258 258 257 257 257 257 256 257 257 257 255 255 255 254 255 256 260 260 259 261 263 263 264 264 264 266
267 266 264 262 262 264 265 265 265 263 263 262 262 262 263 263 262 261 260 257 256 257 257 256 255 257 258 258 256 255 255 254 255 256 258 260 260 261 263 262 263 264 262 265
267 266 264 264 262 263 265 266 267 266 263 262 262 262 263 263 262 261 261 259 257 258 258 258 256 256 257 257 257 256 255 255 255 256 256 259 262 262 262 263 263 264 263 265
265 265 266 266 264 264 265 265 267 267 264 262 262 261 261 261 262 261 261 261 260 259 259 258 258 257 257 257 257 257 255 255 256 257 258 258 261 261 262 262 263 264 263 265
266 267 268 268 268 266 266 266 266 266 264 261 262 261 260 260 261 261 261 261 260 259 260 260 259 258 257 257 257 258 256 255 256 257 259 259 260 261 261 261 262 262 264 264
267 269 269 269 268 267 267 267 267 265 263 261 262 262 261 261 261 261 263 261 259 259 260 260 259 258 257 257 257 256 256 256 256 258 259 260 260 261 260 260 260 262 263 263
267 268 269 269 268 267 268 267 265 264 263 262 262 262 262 262 262 262 263 262 260 259 259 259 258 258 257 258 258 256 256 257 257 258 259 260 261 261 260 259 260 261 262 262
265 267 268 268 267 267 268 267 266 265 264 263 263 262 262 262 263 263 262 262 260 259 258 258 258 257 257 258 260 259 257 257 256 257 259 261 261 261 261 260 260 261 262 263
264 265 266 266 267 266 267 267 266 265 265 264 263 262 262 262 263 263 262 262 261 259 257 258 258 258 258 258 259 261 260 259 258 258 259 260 260 261 260 260 261 262 263 264
266 267 268 266 266 266 267 266 266 265 264 264 262 262 262 263 263 263 263 262 261 260 258 258 259 259 258 259 260 260 260 261 261 260 261 260 260 261 260 260 261 261 263 264
267 267 269 268 266 265 265 266 267 267 265 264 263 262 262 263 264 264 262 261 260 259 259 258 258 258 258 259 260 260 261 261 262 261 262 262 261 261 261 261 261 261 263 265
267 268 268 268 266 264 264 265 266 267 265 262 262 263 263 262 263 263 263 262 260 260 260 259 258 258 259 260 260 260 261 261 262 262 262 262 262 262 262 261 261 261 262 265
267 268 267 266 265 264 263 264 265 266 265 263 263 264 264 263 263 263 262 261 260 260 260 260 259 259 260 260 260 261 261 262 262 262 262 261 261 261 261 262 261 262 263 264
266 266 267 266 264 263 263 262 261 263 264 263 263 264 264 262 262 263 262 261 260 260 260 260 260 259 259 260 261 261 262 262 262 262 261 260 260 260 260 261 262 262 263 263
267 268 267 267 266 263 263 262 260 261 262 261 262 264 265 263 261 262 262 262 261 260 260 260 260 260 260 259 259 260 261 262 262 261 261 261 260 261 261 262 263 264 265 264
267 267 268 267 267 265 263 262 261 261 261 263 264 263 264 264 263 263 263 263 262 260 259 259 259 260 260 260 259 260 261 263 263 263 263 263 261 261 263 264 265 266 266 265
268 267 266 265 265 264 263 261 260 260 261 262 263 263 263 263 264 264 263 263 262 261 261 260 259 259 259 259 260 260 261 262 263 264 263 263 262 262 264 265 266 266 266 265
267 267 266 265 265 263 262 261 260 260 261 262 262 263 264 264 264 264 264 263 261 261 261 260 258 259 259 258 258 259 260 262 265 266 264 263 264 264 264 266 266 266 266 266
266 267 266 265 263 262 261 262 261 261 262 264 264 264 264 264 264 264 265 264 262 261 260 260 260 260 260 259 259 260 261 263 264 265 265 264 265 265 265 265 265 265 266 266
267 267 266 265 263 262 261 261 262 261 263 264 264 264 263 264 264 264 264 263 262 261 261 261 261 260 258 258 259 260 262 264 265 265 266 266 266 266 265 265 265 264 265 265
268 269 268 266 265 263 262 262 263 264 265 265 264 264 264 264 264 264 264 264 264 263 262 262 262 260 258 258 259 261 263 265 266 267 267 267 267 266 265 265 264 263 264 265
268 268 266 265 264 264 264 263 263 264 264 264 263 264 265 264 263 264 265 265 266 265 264 263 262 262 261 260 261 262 264 267 268 268 267 267 267 266 265 264 264 264 265 266
269 269 267 265 264 265 265 265 264 264 264 264 263 263 263 263 263 264 265 265 266 266 266 265 262 261 261 261 262 262 264 266 267 268 267 266 265 265 265 266 266 266 266 267
270 268 267 266 265 264 265 265 265 265 263 262 262 263 263 262 263 264 264 265 265 266 266 265 264 262 261 261 262 263 264 266 267 268 268 266 264 264 266 267 267 267 267 267
269 266 265 266 265 263 262 263 263 263 263 262 262 263 263 262 263 264 264 264 265 265 265 265 264 263 263 263 264 265 266 267 268 268 266 264 265 265 266 267 267 266 266 267
270 267 266 266 264 263 262 262 262 263 263 263 263 263 262 262 264 265 265 265 265 265 265 265 264 264 264 264 264 265 266 267 268 267 266 266 266 267 268 269 268 268 268 268
Height
5812 5812 5812 5812 5813 5813 5813 5813 5814 5815 5815 5816 5816 5816 5816 5816 5817 5818 5818 5819 5820 5821 5822 5822 5823 5824 5825 5825 5827 5827 5828 5829 5830 5830 5831 5831 5832 5832 5833 5833 5833 5833 5833 5833
5806 5806 5806 5806 5807 5807 5807 5807 5808 5808 5809 5810 5809 5810 5810 5810 5811 5812 5812 5813 5814 5815 5816 5817 5818 5818 5819 5820 5821 5822 5823 5824 5825 5826 5826 5827 5827 5828 5828 5828 5828 5828 5828 5828
5800 5799 5799 5800 5801 5801 5801 5801 5802 5802 5804 5803 5803 5803 5804 5804 5805 5805 5806 5807 5808 5809 5810 5811 5812 5813 5814 5815 5816 5817 5818 5819 5820 5820 5821 5822 5822 5823 5823 5823 5823 5823 5824 5824
5793 5793 5792 5796 5795 5794 5794 5795 5795 5795 5796 5796 5796 5797 5797 5798 5798 5799 5799 5800 5801 5802 5803 5804 5806 5807 5808 5809 5810 5811 5812 5813 5814 5815 5816 5816 5817 5817 5818 5818 5818 5818 5819 5819
5786 5785 5785 5788 5788 5787 5787 5788 5788 5788 5789 5789 5789 5789 5790 5791 5791 5792 5793 5794 5795 5795 5796 5798 5799 5800 5801 5802 5803 5804 5806 5807 5808 5809 5810 5811 5811 5812 5812 5813 5813 5813 5813 5814
5778 5777 5778 5781 5781 5779 5780 5781 5782 5781 5781 5782 5782 5783 5784 5784 5784 5785 5786 5786 5787 5788 5789 5791 5792 5793 5794 5795 5796 5798 5799 5800 5801 5803 5803 5804 5805 5805 5806 5807 5807 5807 5808 5808
5770 5769 5771 5773 5773 5772 5774 5775 5774 5773 5774 5774 5775 5776 5777 5777 5777 5778 5778 5779 5780 5781 5782 5784 5785 5786 5787 5788 5789 5791 5792 5793 5795 5796 5797 5797 5798 5799 5799 5800 5800 5801 5801 5802
5763 5762 5765 5765 5765 5765 5766 5765 5765 5765 5766 5767 5767 5768 5768 5769 5769 5770 5771 5771 5772 5773 5775 5776 5777 5779 5780 5781 5782 5784 5785 5786 5788 5789 5790 5790 5791 5792 5792 5793 5794 5794 5795 5795
5756 5757 5757 5756 5756 5756 5756 5756 5756 5757 5758 5758 5759 5760 5760 5761 5761 5762 5763 5763 5764 5765 5767 5768 5770 5771 5773 5774 5775 5776 5778 5779 5780 5781 5782 5783 5784 5784 5785 5786 5786 5787 5788 5788
5746 5747 5747 5747 5746 5747 5746 5747 5747 5748 5749 5750 5750 5751 5752 5752 5753 5754 5754 5755 5756 5757 5759 5760 5761 5763 5764 5766 5767 5768 5769 5771 5772 5773 5774 5775 5776 5777 5778 5778 5779 5780 5780 5781
5737 5738 5738 5738 5737 5738 5738 5738 5739 5740 5740 5740 5741 5742 5743 5744 5744 5745 5746 5747 5748 5749 5750 5752 5753 5754 5756 5757 5758 5760 5761 5762 5764 5765 5766 5767 5768 5769 5769 5770 5771 5772 5772 5772
5729 5729 5728 5729 5729 5729 5730 5730 5731 5731 5731 5731 5732 5733 5734 5735 5736 5736 5737 5738 5739 5740 5741 5743 5744 5746 5747 5748 5750 5751 5753 5754 5755 5756 5757 5758 5758 5760 5760 5761 5762 5763 5763 5764
5720 5720 5719 5720 5720 5721 5721 5721 5722 5722 5722 5722 5723 5724 5725 5726 5727 5727 5728 5729 5730 5731 5732 5734 5735 5737 5738 5739 5741 5742 5743 5745 5746 5747 5747 5748 5749 5750 5751 5752 5752 5753 5754 5754
5710 5710 5710 5711 5711 5711 5712 5712 5712 5712 5713 5713 5713 5714 5715 5716 5717 5718 5719 5720 5721 5722 5723 5725 5726 5727 5729 5730 5731 5733 5734 5735 5736 5737 5737 5738 5739 5740 5741 5741 5742 5743 5744 5744
5700 5700 5700 5701 5701 5702 5702 5702 5703 5703 5703 5704 5704 5705 5705 5706 5707 5708 5709 5710 5711 5713 5714 5715 5717 5718 5719 5720 5722 5723 5724 5725 5726 5726 5727 5728 5729 5730 5731 5731 5732 5733 5733 5734
5690 5690 5690 5691 5691 5692 5692 5692 5693 5694 5694 5695 5695 5695 5696 5697 5697 5698 5699 5700 5701 5703 5704 5705 5707 5708 5709 5710 5711 5713 5714 5715 5715 5716 5717 5718 5718 5719 5720 5721 5721 5722 5722 5723
5681 5681 5681 5681 5681 5682 5682 5683 5683 5684 5685 5685 5686 5686 5686 5687 5688 5689 5690 5690 5691 5692 5693 5695 5696 5698 5699 5700 5701 5702 5703 5704 5705 5706 5706 5707 5708 5708 5709 5710 5710 5711 5711 5711
5671 5671 5671 5671 5672 5672 5673 5673 5674 5674 5675 5676 5676 5677 5677 5678 5678 5679 5680 5680 5681 5682 5683 5684 5686 5687 5688 5689 5690 5692 5693 5693 5694 5694 5695 5696 5697 5697 5698 5698 5698 5699 5699 5699
5662 5662 5662 5662 5662 5663 5663 5664 5664 5665 5666 5666 5667 5667 5668 5668 5669 5669 5669 5670 5671 5672 5673 5674 5675 5676 5677 5678 5679 5680 5682 5682 5683 5683 5684 5684 5685 5685 5686 5686 5687 5687 5687 5687
5653 5652 5652 5653 5653 5653 5654 5654 5655 5655 5656 5656 5657 5658 5658 5658 5659 5660 5660 5660 5661 5662 5663 5663 5664 5665 5667 5668 5668 5670 5671 5671 5672 5672 5672 5673 5673 5674 5674 5674 5675 5675 5675 5675
5643 5643 5643 5643 5643 5644 5644 5644 5645 5646 5647 5647 5647 5648 5648 5649 5649 5650 5650 5651 5652 5652 5652 5653 5654 5655 5656 5657 5658 5659 5660 5660 5660 5661 5661 5661 5661 5662 5662 5662 5662 5663 5663 5664
5633 5633 5633 5633 5633 5634 5634 5635 5636 5636 5637 5637 5638 5638 5639 5639 5640 5640 5640 5641 5642 5642 5642 5643 5643 5644 5645 5646 5647 5648 5649 5649 5649 5649 5649 5649 5649 5649 5649 5649 5650 5650 5651 5651
5623 5623 5623 5623 5624 5624 5625 5625 5626 5626 5627 5627 5628 5628 5629 5629 5630 5631 5631 5632 5632 5632 5632 5633 5633 5634 5634 5635 5636 5637 5637 5638 5637 5637 5637 5637 5637 5637 5637 5637 5637 5638 5638 5639
5612 5612 5613 5613 5613 5614 5615 5615 5616 5616 5616 5617 5617 5618 5618 5619 5620 5620 5621 5622 5622 5622 5622 5623 5623 5623 5624 5624 5625 5626 5626 5626 5626 5626 5626 5626 5626 5626 5626 5626 5626 5626 5626 5627
5602 5602 5602 5603 5603 5604 5604 5605 5605 5606 5606 5607 5607 5607 5608 5609 5610 5610 5611 5611 5612 5612 5612 5612 5613 5613 5613 5614 5614 5615 5615 5615 5615 5615 5615 5615 5615 5615 5615 5615 5614 5614 5614 5614
5591 5591 5592 5592 5592 5593 5593 5594 5595 5595 5596 5596 5597 5597 5598 5598 5599 5600 5600 5601 5601 5601 5601 5602 5602 5603 5603 5603 5604 5604 5604 5604 5604 5604 5604 5604 5604 5604 5604 5603 5603 5603 5603 5603
5581 5581 5581 5581 5582 5582 5583 5583 5584 5585 5585 5586 5586 5587 5588 5588 5589 5589 5590 5590 5591 5591 5591 5591 5591 5592 5592 5593 5593 5593 5593 5593 5593 5593 5593 5593 5593 5593 5592 5592 5592 5592 5592 5592